Zurück zum Katalog

ORBCOMM FM 30

AktivKommunikationLEO
NORAD 25980·PAYLOAD·🇺🇸 United States

Gestartet Dec 4, 1999 von Cape Canaveral Space Force Station

Loading…

Nächste Überflüge (nächste 24 Stunden)

TLE

AktuellSource: Space-Track

Epoche: Sep 14, 2026, 13:13 UTC

1 25980U 99065A   26257.55115454  .00000479  00000-0  20261-3 0  9999
2 25980  45.0305  97.1857 0006868 121.2186 238.9336 14.38265968399848

Verfolge ORBCOMM FM 30 in Echtzeit mit AllMySat

Download on the App Store